DELTA 1 DEB, 10652

Orbit data source: Space-Track

DELTA 1 DEB, 10652 is space debris in LEO originally from a launch on Thu, 29 Jul 1976 UTC launched from the Air Force Western Test Range (AFWTR). Debris objects in space refer to the collection of defunct objects orbiting the Earth. Examples of debris include non-operational satellites, rocket bodies, and fragments generated from explosions, collisions, or faulty payload assembly.

Loading next visibility...
Identifier
10652, 1976-077N
Orbit
LEO
Country
Flag of USUS
Related business
Manufacturer
Unknown
Mission
Spacecraft
Bus & Motor
Unknown
Mass
Unknown
Launch date (UTC)
1976-07-29 (49 years ago)
Launch vehicle
Unknown
Launch site
Air Force Western Test Range (AFWTR)
Object type
Payload
Rocket body
Debris
Shape & HBR
Unknown shape, 0.1 m
Radar Cross Section
Small (<0.1 m²)

Expand to show TLE details & history
Last TLE update: 1 day ago

TLE from 1 day ago
0 DELTA 1 DEB
1 10652U 76077N   25291.61829839  .00000967  00000-0  11732-1 0  9993
2 10652 102.8752 180.8881 0252683 290.5565  66.8529 11.97861218123111
Epoch: 2025-10-18T14:50Z
TLE epoch observation values (Epoch: 2025-10-18T14:50:20.980Z)
Latitude
-0.00003°
Longitude
-69.04604°
Altitude
1,617.174 km
Speed
7.095 km/s
True Right ascension
12h 03m 33s
True Declination
0° 00' 00"
Sunlit
Object was in daylight at epoch
Visualization orbit readout
Latitude
Unknown
Longitude
Unknown
Altitude
Unknown
Speed
Unknown
Apparent Right ascension
Unknown
Apparent Declination
Unknown
Sunlit
N/A
Visualization observer readout
Local Sidereal Time
15:48:47
Azimuth
Unknown
Elevation
Unknown
Doppler factor
Unknown
Orbital elements
Apogee altitude
1,891.952 km
Perigee altitude
1,484.31 km
Semi-major axis
8,066.268 km
Eccentricity
0.02527
Inclination
102.8752°
RAAN
180.8881°
Arg. of periapsis
290.5565°
True anomaly
69.5478°
Mean anomaly
66.8529°
Eccentric anomaly
68.1971°
Mean motion
2.99595 °/min
Orbital period
120.16 mins
BSTAR
0.011732
Loading maneuver chart data...
Computing Atmospheric mass density...
Loading historical data...
Loading historical data...
Loading historical data...
Loading historical data...
Loading historical data...
Loading historical data...
Loading historical data...

Documentation

Showing up to 5 results
|